Location: Wald
(31.7579°N, 86.6655°W)
Time: 20:13:10
(UTC+00:00)

Cosmos 1980 Rocket - Pass Details

Date: 14 July 2020
Orbit: 828 x 851 km, 71.0° (Epoch: 13 August)

Event Time Altitude Azimuth Distance (km) Brightness Sun altitude
Rises 10:16:41 0° 315° (NW) 3,415 5.2 -7.3°
Reaches altitude 10° 10:20:21 10° 292° (WNW) 2,471 4.3 -6.7°
Maximum altitude 10:23:10 14° 262° (W) 2,186 3.8 -6.2°
Drops below altitude 10° 10:25:59 10° 231° (SW) 2,458 4.0 -5.6°
Sets 10:29:38 0° 207° (SSW) 3,383 4.8 -5.0°
